Portada
METAR-TAF:

METAR-TAF

Aeroports :

Abadeh, Iran

latitud: 31-11N, longitud: 052-40E, altitud: 2004 m

Observació

L'informe es va fer fa 52 minuts, a les 04:00 UTC
Vent 6 kt del Nord-Oest
Temperatura 18°C
Humitat 20%
Pressió 1023 hPa
Visibilitat 10 km o més
sense núvols per sota de 1500 mi sense presència de cumulonimbus.

METAR: OISA 220400Z 32006KT CAVOK 18/M05 Q1023 A3022

Hora: 09:22 (04:52 UTC)


TAF: manca

Observacions i pronòstics meteorològics de més de 4000 aeroports (METAR i TAF).

Les estacions disponibles són els punts grocs i vermells al mapa.

Posi el ratolí al punt desitjat per veure el nom de l'estació.

Feu clic per veure les observacions i els pronòstics meteorològics.

Per canviar el mapa: feu clic els botons verds amb una creu de color negre per apropar; al botó verd amb un guió per allunyar la imatge; o en les fletxes verdes per a mapes adjacents.


METAR-TAF: